Location: Newark
(35.5300°N, 14.3000°E)
Time: 03:19:46
(UTC+00:00)

Transit 4A - Pass Details

Date: 25 November 2019
Orbit: 871 x 973 km, 66.8° (Epoch: 23 January)

Event Time Altitude Azimuth Distance (km) Brightness Sun altitude
Exits shadow 04:31:40 - 337° (NNW) 2,923 10.2 -15.4°
Reaches altitude 10° 04:32:41 10° 339° (NNW) 2,542 9.9 -15.2°
Maximum altitude 04:38:31 65° 61° (ENE) 953 8.1 -14.0°
Drops below altitude 10° 04:44:16 10° 143° (SE) 2,510 11.0 -12.9°
Sets 04:46:45 0° 147° (SSE) 3,447 11.7 -12.4°
